DW5164 Weather Reports


time (UTC)temp
F
wind
direction
speed
knots
gust
knots
rain 1hr
in
rain 24hr
in
rain mn
in
humidity
%
barometer
mb
20260905050934 67 38 0.0 0.0 0.00 0.00 0.00 91 1014.6
20260905045942 67 17 0.9 2.6 0.00 0.00 0.00 92 1014.4
20260905044435 67 295 1.7 2.6 0.00 0.00 0.00 91 1014.4
20260905043437 67 319 0.9 2.6 0.00 0.00 0.00 91 1014.2
20260905042934 67 329 0.0 0.0 0.00 0.00 0.00 91 1014.2
20260905041434 68 329 0.0 0.0 0.00 0.00 0.00 90 1014.2
20260905040935 68 329 0.0 0.0 0.00 0.00 0.00 90 1014.2
20260905040434 68 329 0.0 0.0 0.00 0.00 0.00 90 1014.3
20260905035934 69 329 0.0 1.7 0.00 0.00 0.00 90 1014.3
20260905035434 69 327 0.9 2.6 0.00 0.00 0.00 90 1014.3
20260905034934 69 326 0.0 1.7 0.00 0.00 0.00 90 1014.2
20260905034435 69 326 1.7 2.6 0.00 0.00 0.00 90 1014.2
20260905033934 69 330 1.7 2.6 0.00 0.00 0.00 90 1014.3
20260905033434 69 338 0.9 2.6 0.00 0.00 0.00 90 1014.2
20260905032434 69 342 1.7 2.6 0.00 0.00 0.00 90 1014.4
20260905031935 69 337 1.7 2.6 0.00 0.00 0.00 89 1014.4
20260905031435 69 331 1.7 2.6 0.00 0.00 0.00 90 1014.4
20260905030934 69 340 0.9 2.6 0.00 0.00 0.00 90 1014.4
20260905025935 69 282 0.0 1.7 0.00 0.00 0.00 89 1014.3
20260905024934 69 267 0.9 1.7 0.00 0.00 0.00 89 1014.4
20260905024435 69 215 0.0 1.7 0.00 0.00 0.00 89 1014.3
20260905023434 69 215 0.9 2.6 0.00 0.00 0.00 89 1014.3
20260905022934 69 11 1.7 1.7 0.00 0.00 0.00 89 1014.4
20260905022435 69 11 0.0 0.0 0.00 0.00 0.00 89 1014.3
20260905021935 69 11 0.0 0.0 0.00 0.00 0.00 90 1014.3
20260905021434 69 11 0.9 0.9 0.00 0.00 0.00 89 1014.2
20260905020935 69 11 0.0 0.9 0.00 0.00 0.00 89 1014.3
20260905020434 69 11 0.0 0.0 0.00 0.00 0.00 89 1014.3
20260905015434 70 11 0.0 0.0 0.00 0.00 0.00 88 1014.3
20260905013934 70 26 0.0 0.0 0.00 0.00 0.00 87 1014.3
20260905013434 70 26 0.9 1.7 0.00 0.00 0.00 87 1014.3
20260905012934 71 26 0.9 1.7 0.00 0.00 0.00 86 1014.4
20260905012435 71 26 0.0 1.7 0.00 0.00 0.00 86 1014.4
20260905011434 71 26 1.7 2.6 0.00 0.00 0.00 85 1014.3
20260905010934 71 26 0.9 2.6 0.00 0.00 0.00 86 1014.3
20260905010434 71 26 0.9 2.6 0.00 0.00 0.00 86 1014.3
20260905005935 71 23 0.9 2.6 0.00 0.00 0.00 86 1014.4
20260905004934 71 54 0.9 1.7 0.00 0.00 0.00 86 1014.4
20260905004435 71 54 0.0 0.0 0.00 0.00 0.00 86 1014.6
20260905003933 71 54 0.0 0.0 0.00 0.00 0.00 86 1014.6
20260905003434 71 54 0.0 1.7 0.00 0.00 0.00 86 1014.6
20260905002448 71 54 0.0 0.0 0.00 0.00 0.00 86 1014.6
20260905001934 71 54 0.0 0.0 0.00 0.00 0.00 85 1014.7
20260905001434 71 54 0.0 0.0 0.00 0.00 0.00 85 1014.7
20260905000934 72 54 0.0 0.0 0.00 0.00 0.00 84 1014.7
20260905000434 72 54 0.0 0.0 0.00 0.00 0.00 84 1014.7
20260904235937 72 54 0.0 0.0 0.00 0.00 0.00 83 1014.7
20260904234934 72 54 1.7 2.6 0.00 0.00 0.00 83 1014.8
20260904234436 73 54 0.0 0.9 0.00 0.00 0.00 83 1014.8
20260904233950 73 54 0.9 2.6 0.00 0.00 0.00 83 1014.8
20260904232933 73 54 0.0 1.7 0.00 0.00 0.00 82 1014.9
20260904232434 73 54 0.9 1.7 0.00 0.00 0.00 82 1014.9
20260904231935 73 60 0.9 1.7 0.00 0.00 0.00 81 1014.9
20260904231436 73 60 0.0 0.0 0.00 0.00 0.00 81 1014.9
20260904230934 73 60 0.9 2.6 0.00 0.00 0.00 81 1014.9
20260904230433 74 50 0.9 2.6 0.00 0.00 0.00 80 1014.9
20260904225937 74 50 0.9 2.6 0.00 0.00 0.00 80 1015.0
20260904225433 74 50 0.0 1.7 0.00 0.00 0.00 79 1015.0
20260904224935 74 50 0.9 2.6 0.00 0.00 0.00 79 1014.9
20260904224433 74 50 1.7 2.6 0.00 0.00 0.00 79 1014.9
20260904223934 74 50 0.9 2.6 0.00 0.00 0.00 80 1015.0
20260904222934 74 41 1.7 2.6 0.00 0.00 0.00 80 1015.0
20260904222433 75 36 0.9 2.6 0.00 0.00 0.00 80 1015.0
20260904221933 75 36 0.9 2.6 0.00 0.00 0.00 80 1015.0
20260904220433 75 36 0.9 2.6 0.00 0.00 0.00 81 1014.9
20260904215934 75 36 1.7 2.6 0.00 0.00 0.00 80 1015.0
20260904215435 76 36 0.0 0.9 0.00 0.00 0.00 79 1014.9
20260904214949 76 36 1.7 4.3 0.00 0.00 0.00 79 1015.0
20260904214434 76 35 1.7 2.6 0.00 0.00 0.00 77 1014.9
20260904213933 76 31 0.9 1.7 0.00 0.00 0.00 78 1014.9
20260904211433 76 123 0.0 0.0 0.00 0.00 0.00 78 1014.8
20260904210933 76 123 0.0 0.0 0.00 0.00 0.00 79 1014.9
20260904210433 76 122 0.0 0.0 0.00 0.00 0.00 78 1014.9
20260904205433 77 122 0.0 0.9 0.00 0.00 0.00 77 1015.0
20260904203932 77 122 0.9 1.7 0.00 0.00 0.00 77 1015.1
20260904203433 77 122 1.7 2.6 0.00 0.00 0.00 76 1015.1
20260904202949 77 122 1.7 2.6 0.00 0.00 0.00 76 1015.1
20260904202433 77 122 0.9 1.7 0.00 0.00 0.00 76 1015.2
20260904201933 77 106 0.9 2.6 0.00 0.00 0.00 76 1015.2
20260904201433 78 123 1.7 2.6 0.00 0.00 0.00 75 1015.2
20260904200433 79 121 0.0 1.7 0.00 0.00 0.00 74 1015.2
20260904195433 79 121 0.0 0.0 0.00 0.00 0.00 75 1015.2
20260904194436 79 121 0.0 0.0 0.00 0.00 0.00 75 1015.2
20260904193933 79 121 0.0 0.0 0.00 0.00 0.00 75 1015.2
20260904193434 79 121 0.0 0.0 0.00 0.00 0.00 74 1015.2
20260904192932 80 120 0.0 0.0 0.00 0.00 0.00 74 1015.2
20260904192433 80 120 0.0 0.0 0.00 0.00 0.00 73 1015.2
20260904191438 80 120 0.0 0.0 0.00 0.00 0.00 72 1015.1
20260904190433 80 120 0.0 0.0 0.00 0.00 0.00 71 1015.1
20260904185940 80 120 0.0 0.0 0.00 0.00 0.00 70 1015.1
20260904185434 80 120 0.0 0.0 0.00 0.00 0.00 71 1015.0
20260904184932 81 120 0.0 0.0 0.00 0.00 0.00 71 1015.0
20260904183933 81 120 0.0 0.0 0.00 0.00 0.00 71 1015.0
20260904183436 82 120 0.0 0.0 0.00 0.00 0.00 71 1015.0
20260904182932 82 120 0.0 0.0 0.00 0.00 0.00 71 1014.9
20260904182433 82 120 0.0 0.0 0.00 0.00 0.00 70 1014.9
20260904180933 82 120 0.0 0.0 0.00 0.00 0.00 72 1014.7
20260904180433 82 120 0.0 0.0 0.00 0.00 0.00 71 1014.7
20260904175433 83 120 0.9 2.6 0.00 0.00 0.00 69 1014.5
20260904174433 85 96 0.9 1.7 0.00 0.00 0.00 68 1014.4
20260904173432 85 96 0.9 1.7 0.00 0.00 0.00 68 1014.5
20260904171434 87 66 1.7 2.6 0.00 0.00 0.00 61 1014.5
20260904170934 87 67 0.9 1.7 0.00 0.00 0.00 62 1014.5
20260904165933 89 67 0.9 2.6 0.00 0.00 0.00 58 1014.5
20260904165433 90 63 0.9 1.7 0.00 0.00 0.00 55 1014.5
20260904164932 90 71 1.7 2.6 0.00 0.00 0.00 53 1014.6
20260904164432 90 73 1.7 2.6 0.00 0.00 0.00 55 1014.6
20260904163432 90 78 0.9 2.6 0.00 0.00 0.00 55 1014.7
20260904162433 91 90 1.7 2.6 0.00 0.00 0.00 53 1014.8
20260904161932 91 88 1.7 4.3 0.00 0.00 0.00 53 1014.8
20260904161432 91 98 1.7 2.6 0.00 0.00 0.00 53 1014.8
20260904160435 91 106 1.7 4.3 0.00 0.00 0.00 52 1014.8
20260904155432 92 79 1.7 4.3 0.00 0.00 0.00 51 1014.9
20260904154932 92 78 2.6 4.3 0.00 0.00 0.00 52 1014.9
20260904153932 92 109 2.6 4.3 0.00 0.00 0.00 51 1015.0
20260904153433 92 96 2.6 4.3 0.00 0.00 0.00 49 1015.0
20260904152433 92 90 1.7 2.6 0.00 0.00 0.00 46 1015.0
20260904151932 92 121 1.7 4.3 0.00 0.00 0.00 50 1015.1
20260904150934 92 91 1.7 4.3 0.00 0.00 0.00 50 1015.1
20260904150432 92 94 2.6 5.2 0.00 0.00 0.00 49 1015.1
20260904145932 92 90 3.5 5.2 0.00 0.00 0.00 51 1015.1
20260904144931 93 112 1.7 5.2 0.00 0.00 0.00 50 1015.2
20260904144431 93 92 2.6 5.2 0.00 0.00 0.00 49 1015.2
20260904143432 93 76 4.3 6.1 0.00 0.00 0.00 49 1015.3
20260904142932 93 88 2.6 6.1 0.00 0.00 0.00 50 1015.4
20260904141933 92 88 1.7 4.3 0.00 0.00 0.00 47 1015.5
20260904140933 92 110 4.3 6.1 0.00 0.00 0.00 49 1015.5
20260904140432 92 111 2.6 7.0 0.00 0.00 0.00 51 1015.6
20260904134933 93 146 2.6 4.3 0.00 0.00 0.00 49 1015.8
20260904134434 93 96 1.7 4.3 0.00 0.00 0.00 49 1015.8
20260904133932 92 115 2.6 4.3 0.00 0.00 0.00 49 1015.9
20260904133432 92 98 2.6 5.2 0.00 0.00 0.00 52 1016.0
20260904132932 91 143 4.3 7.0 0.00 0.00 0.00 50 1016.0
20260904131932 91 71 4.3 7.8 0.00 0.00 0.00 52 1016.1
20260904131432 92 42 5.2 7.8 0.00 0.00 0.00 53 1016.2
20260904130932 92 71 4.3 7.8 0.00 0.00 0.00 52 1016.2
20260904130434 92 61 4.3 7.0 0.00 0.00 0.00 52 1016.2
20260904125932 92 83 2.6 6.1 0.00 0.00 0.00 52 1016.3
20260904125433 91 99 2.6 6.1 0.00 0.00 0.00 51 1016.4
20260904124932 91 172 1.7 4.3 0.00 0.00 0.00 52 1016.4
20260904124432 91 135 4.3 7.8 0.00 0.00 0.00 52 1016.5
20260904123932 91 89 3.5 7.0 0.00 0.00 0.00 54 1016.6
20260904123431 90 93 3.5 7.0 0.00 0.00 0.00 54 1016.6
20260904121932 90 113 5.2 8.7 0.00 0.00 0.00 54 1016.7
20260904121432 91 87 4.3 8.7 0.00 0.00 0.00 54 1016.7
20260904115443 90 213 1.7 2.6 0.00 0.00 0.00 55 1016.8
20260904114932 90 49 0.9 6.1 0.00 0.00 0.00 58 1016.9
20260904112933 89 187 2.6 7.0 0.00 0.00 0.00 57 1017.1
20260904112439 89 123 2.6 7.0 0.00 0.00 0.00 57 1017.1
20260904111931 89 68 2.6 7.0 0.00 0.00 0.00 57 1017.2
20260904111432 88 94 1.7 5.2 0.00 0.00 0.00 59 1017.3
20260904110934 87 91 2.6 6.1 0.00 0.00 0.00 58 1017.4
20260904110432 88 102 4.3 7.0 0.00 0.00 0.00 60 1017.4
20260904105931 88 125 4.3 6.1 0.00 0.00 0.00 59 1017.4
20260904105433 88 105 3.5 7.0 0.00 0.00 0.00 59 1017.5
20260904104931 88 54 2.6 5.2 0.00 0.00 0.00 62 1017.6
20260904104431 87 84 4.3 6.1 0.00 0.00 0.00 61 1017.7
20260904103431 87 85 1.7 5.2 0.00 0.00 0.00 59 1017.8
20260904102934 87 89 1.7 6.1 0.00 0.00 0.00 60 1017.8
20260904101931 86 93 2.6 5.2 0.00 0.00 0.00 59 1017.8
20260904100936 86 140 1.7 4.3 0.00 0.00 0.00 59 1017.9
20260904100431 86 64 1.7 6.1 0.00 0.00 0.00 59 1017.9
20260904095932 86 49 1.7 4.3 0.00 0.00 0.00 59 1017.9
20260904095431 85 103 2.6 4.3 0.00 0.00 0.00 60 1018.0
20260904094948 85 101 1.7 5.2 0.00 0.00 0.00 60 1018.0
20260904094431 85 60 2.6 4.3 0.00 0.00 0.00 65 1018.0
20260904093932 84 122 2.6 5.2 0.00 0.00 0.00 63 1018.1
20260904092931 84 78 3.5 5.2 0.00 0.00 0.00 64 1018.1
20260904092438 83 75 1.7 4.3 0.00 0.00 0.00 66 1018.1
20260904091431 83 162 1.7 2.6 0.00 0.00 0.00 67 1018.2
20260904090431 83 123 2.6 4.3 0.00 0.00 0.00 67 1018.3
20260904085931 82 152 1.7 6.1 0.00 0.00 0.00 68 1018.3
20260904085432 82 79 1.7 2.6 0.00 0.00 0.00 69 1018.3
20260904084931 82 143 1.7 4.3 0.00 0.00 0.00 68 1018.2
20260904084432 81 92 1.7 5.2 0.00 0.00 0.00 67 1018.3
20260904083931 81 114 2.6 6.1 0.00 0.00 0.00 68 1018.3
20260904083431 81 74 1.7 4.3 0.00 0.00 0.00 69 1018.3
20260904082933 81 111 2.6 6.1 0.00 0.00 0.00 70 1018.3
20260904082436 80 89 2.6 5.2 0.00 0.00 0.00 69 1018.3
20260904080431 79 90 2.6 5.2 0.00 0.00 0.00 74 1018.2
20260904075931 79 82 1.7 5.2 0.00 0.00 0.00 75 1018.2
20260904074947 78 64 1.7 4.3 0.00 0.00 0.00 75 1018.2
20260904074436 78 107 1.7 7.0 0.00 0.00 0.00 74 1018.2
20260904073931 78 94 4.3 6.1 0.00 0.00 0.00 75 1018.1
20260904073431 77 115 1.7 2.6 0.00 0.00 0.00 78 1018.0
20260904072930 77 78 1.7 4.3 0.00 0.00 0.00 78 1018.0
20260904072449 77 71 2.6 5.2 0.00 0.00 0.00 78 1018.0
20260904070931 75 128 0.9 2.6 0.00 0.00 0.00 80 1017.9
20260904065930 74 92 2.6 4.3 0.00 0.00 0.00 82 1017.9
20260904064930 73 115 2.6 4.3 0.00 0.00 0.00 82 1017.9
20260904064430 73 118 1.7 4.3 0.00 0.00 0.00 83 1018.0
20260904063931 73 63 2.6 4.3 0.00 0.00 0.00 83 1018.0
20260904063431 73 81 1.7 4.3 0.00 0.00 0.00 83 1018.0
20260904062931 73 75 2.6 4.3 0.00 0.00 0.00 83 1017.9
20260904062430 72 84 1.7 2.6 0.00 0.00 0.00 83 1017.9
20260904061930 72 62 1.7 2.6 0.00 0.00 0.00 83 1017.9
20260904061431 72 30 0.9 2.6 0.00 0.00 0.00 85 1018.0
20260904060931 71 11 0.9 2.6 0.00 0.00 0.00 86 1017.9
20260904060430 70 56 0.9 1.7 0.00 0.00 0.00 86 1017.9
20260904055931 70 57 1.7 2.6 0.00 0.00 0.00 87 1017.9
20260904055431 70 53 0.0 2.6 0.00 0.00 0.00 87 1017.8
20260904054930 70 53 0.9 1.7 0.00 0.00 0.00 88 1017.8
20260904054431 69 53 0.0 1.7 0.00 0.00 0.00 88 1017.7
20260904053931 69 53 0.9 1.7 0.00 0.00 0.00 89 1017.7
20260904053430 68 53 0.9 1.7 0.00 0.00 0.00 90 1017.7
20260904052930 68 53 0.9 1.7 0.00 0.00 0.00 91 1017.7
20260904052430 68 5 0.0 0.0 0.00 0.00 0.00 91 1017.7
20260904051930 68 5 0.0 1.7 0.00 0.00 0.00 91 1017.6
20260904051430 67 5 0.9 1.7 0.00 0.00 0.00 92 1017.6